• In Hungary
  • List of Countries
  • For 7 days
  • Water Temperature
  • Satellite Maps
  • Weather Map
  • News
  • Weather Widgets
  • user-avatar
    Login

    Hourly Weather Canberra

    Today, 24 January, Wednesday

    Time Temperature Precipitation Wind Pressure Humidity
    00:00 +22°C° 0.1 mm 1 mps 706 mmHg 76%
    01:00 +21°C° 0.1 mm 1 mps 706 mmHg 81%
    02:00 +21°C° 0 mm 1 mps 706 mmHg 82%
    03:00 +20°C° 0 mm 1 mps 706 mmHg 83%
    04:00 +20°C° 0 mm 1 mps 706 mmHg 84%
    05:00 +22°C° 0 mm 1 mps 706 mmHg 76%
    06:00 +23°C° 0 mm 1 mps 706 mmHg 68%
    07:00 +25°C° 0 mm 1 mps 707 mmHg 60%
    08:00 +28°C° 0 mm 2 mps 707 mmHg 50%
    09:00 +31°C° 0 mm 3 mps 707 mmHg 41%
    10:00 +33°C° 0 mm 3 mps 708 mmHg 37%
    11:00 +31°C° 0.1 mm 3 mps 708 mmHg 41%
    12:00 +30°C° 0.1 mm 3 mps 707 mmHg 44%
    13:00 +30°C° 0.1 mm 3 mps 707 mmHg 47%
    14:00 +29°C° 0.1 mm 3 mps 707 mmHg 48%
    15:00 +28°C° 0.1 mm 3 mps 706 mmHg 50%
    16:00 +28°C° 0.1 mm 3 mps 706 mmHg 51%
    17:00 +27°C° 0.1 mm 2 mps 706 mmHg 54%
    18:00 +26°C° 0.1 mm 2 mps 706 mmHg 56%
    19:00 +25°C° 0.1 mm 1 mps 706 mmHg 59%
    20:00 +24°C° 0 mm 1 mps 706 mmHg 60%
    21:00 +23°C° 0 mm 1 mps 706 mmHg 61%
    22:00 +21°C° 0 mm 0 mps 707 mmHg 61%
    23:00 +21°C° 0.1 mm 0 mps 707 mmHg 63%

    Tomorrow, 25 January, Thursday

    Time Temperature Precipitation Wind Pressure Humidity
    00:00 +22°C° 0.1 mm 1 mps 706 mmHg 64%
    01:00 +22°C° 0.1 mm 1 mps 706 mmHg 66%
    02:00 +22°C° 0.1 mm 1 mps 706 mmHg 68%
    03:00 +22°C° 0.1 mm 1 mps 706 mmHg 70%
    04:00 +21°C° 0.1 mm 1 mps 705 mmHg 72%
    05:00 +22°C° 0 mm 1 mps 706 mmHg 68%
    06:00 +24°C° 0 mm 1 mps 706 mmHg 64%
    07:00 +25°C° 0 mm 1 mps 706 mmHg 60%
    08:00 +27°C° 0.1 mm 1 mps 707 mmHg 52%
    09:00 +30°C° 0.1 mm 2 mps 707 mmHg 43%
    10:00 +32°C° 0.1 mm 2 mps 707 mmHg 35%
    11:00 +34°C° 0 mm 2 mps 707 mmHg 32%
    12:00 +36°C° 0 mm 3 mps 707 mmHg 30%
    13:00 +37°C° 0 mm 3 mps 706 mmHg 27%
    14:00 +36°C° 0 mm 2 mps 706 mmHg 30%
    15:00 +35°C° 0 mm 2 mps 706 mmHg 33%
    16:00 +35°C° 0 mm 2 mps 705 mmHg 36%
    17:00 +31°C° 1.7 mm 2 mps 705 mmHg 48%
    18:00 +28°C° 1.7 mm 2 mps 705 mmHg 60%
    19:00 +26°C° 1.7 mm 3 mps 705 mmHg 72%
    20:00 +25°C° 4.8 mm 3 mps 706 mmHg 78%
    21:00 +24°C° 4.8 mm 2 mps 706 mmHg 83%
    22:00 +23°C° 4.8 mm 2 mps 707 mmHg 89%
    23:00 +23°C° 0.3 mm 2 mps 707 mmHg 89%

    Day after tomorrow, 26 January, Friday

    Time Temperature Precipitation Wind Pressure Humidity
    00:00 +22°C° 0.3 mm 1 mps 706 mmHg 89%
    01:00 +22°C° 0.3 mm 1 mps 706 mmHg 89%
    02:00 +22°C° 0 mm 1 mps 706 mmHg 89%
    03:00 +21°C° 0 mm 1 mps 705 mmHg 89%
    04:00 +19°C° 0 mm 0 mps 705 mmHg 89%
    05:00 +20°C° 0 mm 0 mps 706 mmHg 86%
    06:00 +21°C° 0 mm 0 mps 706 mmHg 82%
    07:00 +24°C° 0 mm 1 mps 707 mmHg 79%
    08:00 +27°C° 0 mm 1 mps 707 mmHg 67%
    09:00 +29°C° 0 mm 1 mps 708 mmHg 55%
    10:00 +32°C° 0 mm 1 mps 708 mmHg 43%
    11:00 +33°C° 0 mm 1 mps 708 mmHg 41%
    12:00 +34°C° 0 mm 1 mps 707 mmHg 38%
    13:00 +35°C° 0 mm 1 mps 707 mmHg 35%
    14:00 +33°C° 0.4 mm 1 mps 707 mmHg 41%
    15:00 +32°C° 0.4 mm 1 mps 706 mmHg 46%
    16:00 +31°C° 0.4 mm 1 mps 706 mmHg 52%
    17:00 +29°C° 1.5 mm 2 mps 706 mmHg 59%
    18:00 +28°C° 1.5 mm 3 mps 706 mmHg 67%
    19:00 +26°C° 1.5 mm 3 mps 706 mmHg 74%
    20:00 +25°C° 0.2 mm 3 mps 706 mmHg 78%
    21:00 +25°C° 0.2 mm 3 mps 707 mmHg 81%
    22:00 +24°C° 0.2 mm 3 mps 708 mmHg 85%
    23:00 +23°C° 0.1 mm 2 mps 707 mmHg 87%

    27 January, Saturday

    Time Temperature Precipitation Wind Pressure Humidity
    00:00 +23°C° 0.1 mm 2 mps 707 mmHg 90%
    01:00 +23°C° 0.1 mm 2 mps 707 mmHg 93%
    02:00 +21°C° 0 mm 2 mps 707 mmHg 93%
    03:00 +22°C° 0 mm 1 mps 707 mmHg 93%
    04:00 +22°C° 0 mm 1 mps 707 mmHg 93%
    05:00 +22°C° 0 mm 1 mps 707 mmHg 90%
    06:00 +23°C° 0 mm 2 mps 708 mmHg 88%
    07:00 +24°C° 0 mm 2 mps 708 mmHg 85%
    08:00 +26°C° 0 mm 2 mps 708 mmHg 75%
    09:00 +28°C° 0 mm 2 mps 709 mmHg 66%
    10:00 +30°C° 0 mm 3 mps 709 mmHg 56%
    11:00 +31°C° 0 mm 3 mps 709 mmHg 51%
    12:00 +34°C° 0 mm 2 mps 708 mmHg 46%
    13:00 +35°C° 0 mm 2 mps 708 mmHg 41%
    14:00 +35°C° 0.3 mm 3 mps 708 mmHg 43%
    15:00 +34°C° 0.3 mm 3 mps 707 mmHg 44%
    16:00 +34°C° 0.3 mm 3 mps 707 mmHg 46%
    17:00 +32°C° 0.1 mm 4 mps 707 mmHg 54%
    18:00 +29°C° 0.1 mm 4 mps 707 mmHg 62%
    19:00 +27°C° 0.1 mm 4 mps 707 mmHg 71%
    20:00 +26°C° 0 mm 4 mps 707 mmHg 76%
    21:00 +25°C° 0 mm 4 mps 708 mmHg 81%
    22:00 +24°C° 0 mm 3 mps 708 mmHg 86%
    23:00 +22°C° 0 mm 3 mps 708 mmHg 86%

    28 January, Sunday

    Time Temperature Precipitation Wind Pressure Humidity
    00:00 +22°C° 0 mm 3 mps 708 mmHg 86%
    01:00 +22°C° 0 mm 3 mps 708 mmHg 87%
    02:00 +21°C° 0 mm 3 mps 707 mmHg 88%
    03:00 +21°C° 0 mm 2 mps 707 mmHg 89%
    04:00 +21°C° 0 mm 2 mps 707 mmHg 90%
    05:00 +21°C° 0 mm 2 mps 707 mmHg 88%
    06:00 +21°C° 0 mm 2 mps 708 mmHg 86%
    07:00 +21°C° 0 mm 3 mps 708 mmHg 84%
    08:00 +24°C° 0 mm 3 mps 708 mmHg 74%
    09:00 +26°C° 0 mm 3 mps 708 mmHg 65%
    10:00 +28°C° 0 mm 3 mps 709 mmHg 55%
    11:00 +30°C° 0 mm 3 mps 708 mmHg 49%
    12:00 +31°C° 0 mm 3 mps 708 mmHg 44%
    13:00 +34°C° 0 mm 3 mps 707 mmHg 38%
    14:00 +34°C° 0 mm 3 mps 707 mmHg 37%
    15:00 +34°C° 0 mm 3 mps 707 mmHg 37%
    16:00 +34°C° 0 mm 3 mps 706 mmHg 36%
    17:00 +33°C° 0 mm 3 mps 706 mmHg 43%
    18:00 +30°C° 0 mm 3 mps 706 mmHg 50%
    19:00 +28°C° 0 mm 3 mps 706 mmHg 56%
    20:00 +26°C° 0 mm 3 mps 706 mmHg 63%
    21:00 +24°C° 0 mm 3 mps 707 mmHg 70%
    22:00 +23°C° 0 mm 2 mps 707 mmHg 76%
    23:00 +21°C° 0 mm 2 mps 706 mmHg 79%

    29 January, Monday

    Time Temperature Precipitation Wind Pressure Humidity
    00:00 +20°C° 0 mm 2 mps 706 mmHg 82%
    01:00 +20°C° 0 mm 1 mps 705 mmHg 85%
    02:00 +19°C° 0 mm 1 mps 705 mmHg 85%
    03:00 +19°C° 0 mm 1 mps 705 mmHg 86%
    04:00 +18°C° 0 mm 1 mps 704 mmHg 87%
    05:00 +19°C° 0 mm 1 mps 705 mmHg 81%
    06:00 +20°C° 0 mm 1 mps 705 mmHg 76%
    07:00 +21°C° 0 mm 1 mps 706 mmHg 70%
    08:00 +24°C° 0 mm 1 mps 706 mmHg 58%
    09:00 +27°C° 0 mm 2 mps 706 mmHg 45%
    10:00 +30°C° 0 mm 2 mps 706 mmHg 33%
    11:00 +32°C° 0 mm 2 mps 706 mmHg 29%
    12:00 +34°C° 0 mm 1 mps 705 mmHg 26%
    13:00 +35°C° 0 mm 1 mps 705 mmHg 22%
    14:00 +35°C° 0 mm 1 mps 704 mmHg 23%
    15:00 +36°C° 0 mm 2 mps 704 mmHg 24%
    16:00 +35°C° 0 mm 2 mps 703 mmHg 25%
    17:00 +32°C° 0 mm 2 mps 703 mmHg 32%
    18:00 +30°C° 0 mm 2 mps 703 mmHg 38%
    19:00 +28°C° 0 mm 3 mps 703 mmHg 45%
    20:00 +26°C° 0 mm 2 mps 703 mmHg 53%
    21:00 +25°C° 0 mm 2 mps 703 mmHg 61%
    22:00 +23°C° 0 mm 1 mps 704 mmHg 69%
    23:00 +22°C° 0 mm 1 mps 703 mmHg 73%
    Show more